Weather History for Presque Isle, ME

Change the Weather History Date:

Monday, December 31, 2012

  Actual Average Record
Temperature  
Mean Temperature 10 °F -  
Max Temperature 17 °F 21 °F 46 °F (1936)
Min Temperature 3 °F 3 °F -24 °F (1989)
Degree Days  
Heating Degree Days 55    
Moisture  
Dew Point 2 °F    
Average Humidity 70    
Maximum Humidity 100    
Minimum Humidity 53    
Precipitation  
Precipitation 0.00 in - - ()
Sea Level Pressure  
Sea Level Pressure 29.58 in    
Wind  
Wind Speed 13 mph (West)    
Max Wind Speed 24 mph    
Max Gust Speed 32 mph    
Visibility 10 miles    
Events      
Averages and records for this station are not official NWS values.
T = Trace of Precipitation, MM = Missing Value Source: NWS Daily Summary

Daily Weather History Graph

Daily Weather History Graph

Search for Another Location

Airport:

Trip Planner

Search our weather history database for the weather conditions in past years. The results will help you decide how hot, cold, wet, or windy it might be!

Date:

Astronomy

Dec. 31, 2012 Rise Set
Actual Time 7:16 AM EST 3:54 PM EST
Civil Twilight 6:41 AM EST 4:29 PM EST
Nautical Twilight 6:03 AM EST 5:07 PM EST
Astronomical Twilight 5:26 AM EST 5:44 PM EST
Moon 7:35 PM EST (12/31) 8:44 AM EST (12/31)
Length of Visible Light 9h 47m
Length of Day
8h 37m
Waning Gibbous, 90% of the Moon is Illuminated
Dec 31
Waning Gibbous
Jan 4
Last Quarter
Jan 11
New
Jan 18
First Quarter
Jan 26
Full

Hourly Weather History & Observations

Time (EST) Temp. Windchill Dew Point Humidity Pressure Visibility Wind Dir Wind Speed Gust Speed Precip Events Conditions
12:15 AM 12.2 °F -2.5 °F 1.4 °F 62% 29.51 in 10.0 mi West 12.7 mph 26.5 mph N/A   Overcast
12:36 AM 10.4 °F -6.6 °F 1.4 °F 67% 29.51 in 10.0 mi West 16.1 mph 23.0 mph N/A   Overcast
12:55 AM 10.4 °F -6.6 °F 1.4 °F 67% 29.51 in 10.0 mi West 16.1 mph 23.0 mph N/A   Mostly Cloudy
1:15 AM 10.4 °F -4.8 °F 1.4 °F 67% 29.51 in 10.0 mi West 12.7 mph 24.2 mph N/A   Scattered Clouds
1:35 AM 8.6 °F -7.0 °F 1.4 °F 73% 29.52 in 10.0 mi West 12.7 mph - N/A   Clear
1:55 AM 8.6 °F -7.0 °F -0.4 °F 67% 29.53 in 10.0 mi West 12.7 mph 19.6 mph N/A   Mostly Cloudy
2:15 AM 8.6 °F -6.3 °F -0.4 °F 67% 29.54 in 10.0 mi West 11.5 mph - N/A   Overcast
2:35 AM 8.6 °F -7.7 °F -0.4 °F 67% 29.54 in 10.0 mi West 13.8 mph 18.4 mph N/A   Overcast
2:55 AM 8.6 °F -7.7 °F -0.4 °F 67% 29.55 in 10.0 mi West 13.8 mph 23.0 mph N/A   Mostly Cloudy
3:15 AM 6.8 °F -12.4 °F -0.4 °F 72% 29.55 in 10.0 mi West 18.4 mph 25.3 mph N/A   Scattered Clouds
3:35 AM 6.8 °F -13.4 °F -2.2 °F 67% 29.55 in 10.0 mi West 20.7 mph 24.2 mph N/A   Clear
3:55 AM 6.8 °F -12.9 °F -0.4 °F 72% 29.56 in 10.0 mi West 19.6 mph 27.6 mph N/A   Clear
4:15 AM 6.8 °F -12.4 °F -0.4 °F 72% 29.56 in 10.0 mi West 18.4 mph - N/A   Clear
4:35 AM 6.8 °F -13.4 °F -2.2 °F 67% 29.57 in 10.0 mi West 20.7 mph 24.2 mph N/A   Clear
4:55 AM 6.8 °F -11.8 °F -2.2 °F 67% 29.57 in 10.0 mi West 17.3 mph 25.3 mph N/A   Clear
5:15 AM 6.8 °F -12.4 °F -2.2 °F 67% 29.58 in 10.0 mi West 18.4 mph 26.5 mph N/A   Clear
5:35 AM 6.8 °F -11.8 °F -2.2 °F 67% 29.59 in 10.0 mi West 17.3 mph 25.3 mph N/A   Clear
5:55 AM 6.8 °F -14.3 °F -2.2 °F 67% 29.58 in 10.0 mi West 23.0 mph 32.2 mph N/A   Clear
6:15 AM 5.0 °F -16.7 °F -2.2 °F 72% 29.58 in 7.0 mi West 23.0 mph 29.9 mph N/A   Clear
6:35 AM 5.0 °F -16.7 °F -2.2 °F 72% 29.58 in 8.0 mi West 23.0 mph 29.9 mph N/A   Clear
6:55 AM 5.0 °F -16.7 °F -2.2 °F 72% 29.58 in 5.0 mi West 23.0 mph 31.1 mph N/A   Clear
7:15 AM 5.0 °F -15.7 °F -2.2 °F 72% 29.59 in 10.0 mi West 20.7 mph 29.9 mph N/A   Clear
7:35 AM 6.8 °F -13.4 °F -2.2 °F 67% 29.60 in 10.0 mi West 20.7 mph 27.6 mph N/A   Clear
8:15 AM 6.8 °F -14.7 °F -2.2 °F 67% 29.62 in 10.0 mi West 24.2 mph 31.1 mph N/A   Clear
8:35 AM 6.8 °F -12.9 °F -2.2 °F 67% 29.63 in 10.0 mi West 19.6 mph 28.8 mph N/A   Clear
8:55 AM 8.6 °F -10.0 °F -2.2 °F 62% 29.64 in 10.0 mi West 18.4 mph 27.6 mph N/A   Clear
9:55 AM 10.4 °F -7.2 °F -0.4 °F 62% 29.64 in 10.0 mi West 17.3 mph 23.0 mph N/A   Clear
10:15 AM 10.4 °F -7.7 °F -0.4 °F 62% 29.64 in 10.0 mi West 18.4 mph 23.0 mph N/A   Clear
10:35 AM 12.2 °F -3.7 °F -0.4 °F 57% 29.64 in 10.0 mi West 15.0 mph - N/A   Clear
10:55 AM 12.2 °F -1.8 °F 1.4 °F 62% 29.63 in 10.0 mi West 11.5 mph - N/A   Clear
11:35 AM 15.8 °F 1.4 °F 1.4 °F 53% 29.62 in 10.0 mi WNW 13.8 mph 21.9 mph N/A   Clear
11:55 AM 15.8 °F 2.7 °F 1.4 °F 53% 29.62 in 10.0 mi West 11.5 mph - N/A   Clear
12:15 PM 15.8 °F 2.7 °F 3.2 °F 58% 29.61 in 10.0 mi West 11.5 mph - N/A   Clear
12:35 PM 17.6 °F 2.7 °F 3.2 °F 53% 29.62 in 10.0 mi WNW 16.1 mph 21.9 mph N/A   Clear
1:15 PM 17.6 °F 2.7 °F 3.2 °F 53% 29.61 in 10.0 mi West 16.1 mph 20.7 mph N/A   Clear
1:35 PM 17.6 °F 2.2 °F 3.2 °F 53% 29.62 in 10.0 mi West 17.3 mph 20.7 mph N/A   Clear
1:55 PM 17.6 °F 2.7 °F 3.2 °F 53% 29.61 in 10.0 mi West 16.1 mph 24.2 mph N/A   Clear
2:15 PM 17.6 °F 4.3 °F 5.0 °F 58% 29.61 in 10.0 mi WNW 12.7 mph - N/A   Clear
2:35 PM 17.6 °F 5.7 °F 5.0 °F 58% 29.62 in 10.0 mi WNW 10.4 mph - N/A   Clear
2:55 PM 17.6 °F 5.0 °F 5.0 °F 58% 29.63 in 10.0 mi West 11.5 mph 17.3 mph N/A   Clear
3:15 PM 17.6 °F 5.0 °F 5.0 °F 58% 29.63 in 10.0 mi West 11.5 mph - N/A   Clear
3:35 PM 17.6 °F 5.0 °F 5.0 °F 58% 29.63 in 10.0 mi West 11.5 mph - N/A   Clear
3:55 PM 15.8 °F 6.1 °F 6.8 °F 68% 29.63 in 10.0 mi West 6.9 mph - N/A   Clear
4:15 PM 15.8 °F 5.1 °F 5.0 °F 62% 29.63 in 10.0 mi West 8.1 mph - N/A   Clear
4:35 PM 14.0 °F 3.9 °F 3.2 °F 62% 29.62 in 10.0 mi West 6.9 mph - N/A   Clear
4:55 PM 12.2 °F 2.9 °F 3.2 °F 67% 29.62 in 10.0 mi West 5.8 mph - N/A   Clear
5:15 PM 12.2 °F - 5.0 °F 73% 29.62 in 10.0 mi Calm Calm - N/A   Clear
5:35 PM 12.2 °F - 3.2 °F 67% 29.61 in 10.0 mi Calm Calm - N/A   Clear
5:55 PM 12.2 °F - 3.2 °F 67% 29.61 in 10.0 mi Calm Calm - N/A   Clear
6:15 PM 8.6 °F - 1.4 °F 73% 29.61 in 10.0 mi Calm Calm - N/A   Clear
6:35 PM 6.8 °F - 3.2 °F 85% 29.61 in 10.0 mi Calm Calm - N/A   Clear
6:55 PM 6.8 °F - 1.4 °F 79% 29.61 in 10.0 mi Calm Calm - N/A   Clear
7:15 PM 6.8 °F - 3.2 °F 85% 29.60 in 10.0 mi Calm Calm - N/A   Clear
7:35 PM 3.2 °F - 3.2 °F 100% 29.58 in 10.0 mi Calm Calm - N/A   Partly Cloudy
7:55 PM 3.2 °F - 3.2 °F 100% 29.58 in 10.0 mi Calm Calm - N/A   Mostly Cloudy
8:15 PM 3.2 °F - 3.2 °F 100% 29.58 in 10.0 mi Calm Calm - N/A   Overcast
8:35 PM 3.2 °F - -2.2 °F 78% 29.57 in 10.0 mi Calm Calm - N/A   Overcast
8:55 PM 3.2 °F - 1.4 °F 92% 29.56 in 10.0 mi Calm Calm - N/A   Overcast
9:15 PM 5.0 °F - 1.4 °F 85% 29.55 in 10.0 mi Calm Calm - N/A   Overcast
9:35 PM 5.0 °F - 1.4 °F 85% 29.54 in 10.0 mi Calm Calm - N/A   Overcast
9:55 PM 8.6 °F - 1.4 °F 73% 29.55 in 9.0 mi Calm Calm - N/A   Overcast
10:15 PM 8.6 °F - 3.2 °F 79% 29.54 in 10.0 mi Calm Calm - N/A   Overcast
10:35 PM 10.4 °F - 6.8 °F 85% 29.53 in 10.0 mi Calm Calm - N/A   Overcast
10:55 PM 10.4 °F - 6.8 °F 85% 29.52 in 3.0 mi Calm Calm - N/A   Overcast
11:15 PM 10.4 °F - 5.0 °F 79% 29.50 in 7.0 mi Calm Calm - N/A   Overcast
11:35 PM 12.2 °F - 12.2 °F 100% 29.49 in 3.0 mi Calm Calm - N/A   Mostly Cloudy
11:55 PM 12.2 °F - 8.6 °F 85% 29.48 in 4.0 mi Calm Calm - N/A   Overcast